Retour au catalogue

COSMOS 1678 DEB *

ActifLEO
NORAD 18608·DEBRIS·🇷🇺 Russia

Lancé Aug 29, 1985 depuis Plesetsk Cosmodrome

Loading…

Prochains Passages (prochaines 24 heures)

TLE

FraisSource: Space-Track

Époque: Sep 14, 2026, 11:15 UTC

1 18608U 85077K   26257.46934043  .00001396  00000-0  25437-3 0  9998
2 18608  74.0392 262.7109 0009601 254.0333 105.9779 14.67038717 92433

Suivez COSMOS 1678 DEB * en temps réel avec AllMySat

Download on the App Store